Temp
18 18 18 18 19 19 19 20 20 20 21 21 21 22 22 22 22 19 18 27 26 26 26 26 26 26 25 25 25 23 22 21 26 27 29 27 27 27 26 25 24 28 26 25 22
17 17 18 18 19 19 20 20 20 21 21 21 21 21 22 22 19 17 27 27 27 26 25 25 25 25 22 25 24 23 20 23 25 27 27 30 28 25 27 25 25 25 26 23 21
17 18 18 19 19 19 20 20 21 21 20 20 21 21 21 20 18 26 28 28 26 26 26 26 26 26 25 25 26 24 24 25 27 26 26 27 26 26 27 26 25 25 25 22 21
17 18 18 19 19 20 20 20 21 21 20 20 21 21 21 18 27 28 28 28 26 26 25 25 24 25 25 26 25 27 26 27 27 28 28 27 27 27 28 27 27 26 26 23 22
17 18 18 19 20 20 20 20 21 21 20 21 21 21 19 20 21 28 28 27 26 25 25 25 25 25 26 25 26 26 26 26 26 25 25 27 26 26 27 27 26 26 27 24 23
17 18 19 19 20 20 20 20 21 21 21 21 21 20 18 23 28 28 28 27 26 25 25 25 25 24 26 26 27 27 26 26 26 27 27 27 26 26 27 26 26 26 26 25 23
17 18 19 20 20 20 20 21 21 21 21 21 20 18 19 23 28 28 28 28 28 27 27 27 27 28 27 27 27 27 27 25 27 29 30 27 26 26 25 26 25 25 25 25 25
18 18 19 20 21 21 21 21 21 20 21 21 19 17 20 27 27 28 28 28 28 28 28 29 29 27 27 27 25 26 24 25 27 28 29 29 28 26 25 25 25 24 24 24 22
18 18 19 20 21 21 22 22 20 19 20 19 18 18 22 27 27 30 29 28 29 30 29 29 28 25 24 24 22 21 24 26 26 27 29 29 27 24 23 25 24 24 24 24 22
18 19 20 21 22 22 22 20 19 19 18 18 17 20 25 28 29 30 30 29 28 29 27 27 21 22 19 21 23 26 26 25 25 27 28 27 26 22 23 24 25 22 23 24 22
18 19 20 21 22 23 22 19 19 20 18 24 24 24 25 28 30 30 30 30 28 25 26 24 23 23 24 23 25 26 26 25 25 26 29 26 25 22 22 23 22 22 22 23 23
19 19 21 22 23 24 23 21 25 25 22 21 23 23 25 27 27 29 30 28 27 26 26 23 23 25 25 25 25 24 25 24 26 28 28 25 23 21 22 22 23 22 22 24 24
19 20 21 22 24 23 22 24 25 25 21 23 24 25 27 27 26 28 28 27 27 26 26 25 26 27 26 26 27 26 26 27 27 27 27 25 22 22 23 23 24 22 22 24 23
19 20 21 23 23 22 24 25 26 24 20 25 27 28 29 28 28 29 29 28 27 28 27 25 26 28 28 28 27 28 27 28 28 26 25 25 23 22 23 23 22 21 22 22 24
19 20 21 22 21 21 25 25 26 24 23 28 29 30 28 28 30 30 29 28 28 28 27 26 27 26 29 30 30 29 29 27 27 24 24 24 20 22 22 23 23 22 21 22 23
20 21 22 21 21 25 25 26 25 21 25 28 29 28 28 28 29 29 29 29 28 28 27 26 27 28 29 30 29 29 28 23 21 21 22 22 20 21 20 22 22 22 21 21 22
21 21 22 21 22 25 25 22 20 22 26 28 28 27 27 27 28 28 28 27 25 26 25 25 27 27 28 27 27 24 22 21 22 20 23 22 21 21 23 23 22 20 21 20 19
21 22 22 23 24 24 24 19 23 25 25 28 29 27 27 27 28 28 27 25 26 25 23 24 24 27 28 28 27 26 23 21 24 22 22 23 22 21 23 23 21 20 20 20 20
21 22 21 24 25 23 17 18 20 23 26 26 27 28 26 27 28 28 26 24 26 25 25 24 26 26 28 28 26 27 22 23 21 20 21 21 24 23 23 22 21 21 20 20 19
19 19 21 24 24 22 16 18 21 24 26 27 25 25 25 25 26 27 25 25 27 25 24 24 24 26 26 27 25 25 23 23 19 23 23 21 22 21 22 22 23 22 20 20 19
17 17 22 24 24 16 18 18 22 25 26 26 25 25 25 25 25 24 24 25 26 25 23 23 22 24 24 24 24 22 22 18 18 19 20 20 20 20 22 22 21 21 20 20 19
13 18 22 22 18 13 17 20 23 25 26 27 26 26 25 24 24 25 25 25 25 25 24 21 19 21 24 22 22 24 22 19 19 22 17 17 19 22 20 21 21 20 20 19 18
10 11 21 22 18 17 18 22 24 24 25 26 24 24 24 25 24 24 24 24 24 24 23 22 19 18 20 21 22 21 22 20 17 16 18 19 20 22 22 21 20 19 19 18 18
10 16 14 13 14 18 19 21 22 23 25 24 24 23 23 23 20 22 22 21 22 22 19 19 17 19 19 21 20 21 22 22 19 17 19 18 21 22 22 22 18 18 18 18 18
10 13 13 15 16 16 18 20 21 21 22 23 23 22 23 22 21 20 20 21 21 18 20 18 19 19 19 20 21 22 21 21 19 19 19 20 19 20 21 19 18 17 17 18 18
11 12 11 12 13 17 15 17 19 20 20 22 21 18 20 20 20 19 19 19 20 19 19 16 19 19 20 20 21 20 20 20 19 20 18 19 19 18 18 18 18 18 18 18 17
11 11 10 11 13 15 16 17 19 18 20 20 18 17 18 18 18 19 18 17 19 20 17 17 16 16 17 19 19 18 19 20 21 21 21 20 20 18 18 17 17 17 17 17 17
Height
810 808 805 802 799 796 793 790 787 784 782 780 779 778 776 774 771 769 765 760 761 763 765 767 769 769 771 772 772 776 809 822 800 795 783 774 780 770 769 774 773 768 769 775 791
809 806 804 801 798 794 790 788 785 782 779 778 776 776 775 773 769 765 757 757 761 763 765 766 768 768 776 774 775 787 813 805 783 777 779 770 772 777 777 779 780 775 770 777 790
808 806 803 799 796 791 788 786 782 779 778 776 774 774 774 772 771 759 755 755 759 762 765 766 767 767 776 775 775 784 798 783 772 767 769 775 773 768 773 780 766 774 773 779 790
807 804 800 797 793 789 786 783 780 778 776 774 774 773 772 773 780 757 756 756 758 761 765 766 767 774 780 783 774 784 775 772 765 758 762 769 765 771 761 757 744 760 768 776 785
806 802 798 794 791 788 784 780 778 776 775 774 773 772 772 775 768 756 756 757 758 761 763 766 770 774 781 779 777 781 773 768 761 761 762 759 764 765 759 755 756 762 769 779 779
804 801 796 792 789 785 781 779 777 775 774 773 773 772 773 778 757 756 756 757 758 761 763 764 766 766 772 774 777 770 769 765 760 756 755 761 761 759 758 757 761 764 767 773 774
803 799 795 790 786 783 779 777 775 774 773 773 773 772 773 767 757 756 756 757 757 758 760 760 761 764 765 771 764 766 774 768 759 753 752 753 774 768 756 758 763 765 768 769 767
801 798 794 788 784 781 778 776 774 774 774 773 772 773 772 757 756 755 755 756 756 758 758 757 759 762 764 761 770 776 782 795 764 755 749 752 780 759 755 755 763 764 767 769 764
800 796 790 785 781 779 777 775 774 774 773 773 774 775 769 755 753 752 754 756 755 755 756 757 759 768 770 785 797 797 803 792 781 754 754 756 771 756 756 757 761 764 769 767 764
800 795 788 785 780 778 776 774 773 773 774 774 776 777 759 756 751 751 753 755 756 755 759 761 774 784 794 800 817 799 795 793 794 766 757 765 767 760 756 757 759 767 765 761 760
798 792 787 782 778 777 775 775 777 777 774 769 767 767 760 752 751 751 753 754 756 762 779 774 790 800 789 788 785 784 790 795 783 767 761 771 771 772 765 764 767 766 764 758 753
795 790 785 781 778 776 774 774 773 774 777 761 761 762 756 755 761 752 752 761 764 781 775 789 796 774 773 777 782 789 795 794 776 763 764 781 790 788 783 781 777 772 764 752 752
794 789 784 779 776 776 774 774 772 771 784 766 757 755 752 753 760 756 752 759 769 780 779 791 776 764 770 773 779 781 788 781 782 768 766 780 806 796 783 778 770 768 765 760 756
793 787 782 777 779 776 773 772 772 773 803 777 760 750 748 749 760 746 747 757 767 777 774 782 765 767 765 772 770 779 767 768 771 783 806 781 824 807 795 786 774 771 765 757 747
790 784 780 778 777 777 776 772 772 774 818 764 756 742 746 758 752 749 746 754 771 772 776 785 772 772 767 763 755 769 755 767 770 791 797 800 827 813 797 790 776 765 758 749 751
786 780 778 777 777 775 772 771 773 806 809 768 753 758 761 757 755 750 752 752 756 767 772 775 758 760 759 751 752 752 763 780 794 802 824 810 820 824 812 798 783 764 755 747 751
781 780 777 777 774 773 772 773 809 814 771 772 767 760 764 768 763 760 766 775 788 794 796 782 772 762 755 767 759 769 793 828 828 836 828 805 818 817 793 785 779 772 758 755 752
781 777 774 772 772 773 773 794 811 788 783 761 758 761 772 765 765 765 773 786 775 781 803 805 809 773 762 769 776 780 791 826 829 839 829 805 824 812 786 777 777 771 761 757 757
778 773 770 769 770 773 785 816 808 792 773 771 764 770 778 767 764 765 777 786 774 774 797 804 797 769 764 763 769 780 804 791 821 826 828 824 801 789 783 782 781 774 770 763 763
777 774 770 769 771 773 798 808 794 775 767 766 785 778 787 781 777 774 781 776 774 770 771 788 804 779 771 764 772 780 785 808 824 830 830 827 819 815 796 787 779 776 775 769 766
779 779 770 769 772 785 807 803 784 767 763 770 778 781 782 784 781 785 788 778 770 774 775 785 798 796 782 792 795 796 802 818 822 828 840 842 828 791 784 784 783 782 778 777 776
783 788 771 772 790 803 800 788 774 768 762 762 766 771 779 781 784 784 786 781 771 772 787 790 809 815 799 788 787 787 802 814 831 822 834 838 828 775 777 780 778 781 779 779 779
796 792 772 771 799 801 791 781 773 771 768 767 774 772 774 780 790 784 782 774 773 776 787 790 815 833 821 806 794 804 801 808 821 829 830 834 820 775 773 775 775 780 781 781 779
796 795 785 782 791 792 792 786 783 769 767 769 773 773 780 785 790 792 790 786 779 783 787 790 814 817 833 814 811 809 804 802 813 834 824 822 804 783 780 778 782 781 781 780 782
799 803 802 804 797 796 791 789 786 786 774 772 779 781 783 793 797 801 796 791 788 791 790 799 812 811 807 806 801 801 803 802 812 812 819 806 804 788 780 778 779 778 780 781 779
803 804 803 804 801 795 800 801 795 787 788 783 788 792 787 797 797 804 799 798 797 795 798 805 813 807 808 801 802 806 802 800 801 799 803 800 799 780 774 775 778 778 779 781 781
802 802 804 809 804 800 804 798 795 793 784 784 790 794 796 798 795 794 795 798 795 797 804 808 816 824 824 810 810 819 802 795 789 785 787 797 785 780 782 782 784 784 784 785 783
Wind_Speed
14 15 16 17 17 17 18 18 19 19 18 17 16 16 16 18 20 12 7 3 5 5 7 2 1 2 3 1 3 4 4 2 4 4 5 6 5 3 5 6 4 6 5 14 28
15 17 17 18 18 18 18 19 19 18 16 15 14 14 14 16 15 11 2 4 8 2 4 3 3 3 1 2 1 4 4 8 6 4 6 3 6 5 3 4 4 3 8 33 32
17 18 19 19 19 19 18 19 18 14 12 13 12 10 9 10 4 5 2 8 7 5 3 2 2 3 1 1 3 4 4 5 7 11 3 5 6 7 13 7 9 13 19 24 28
19 19 20 21 21 19 19 18 14 11 12 10 9 7 5 4 2 1 4 7 7 5 5 5 3 3 1 2 2 0 7 4 8 3 3 7 8 5 13 12 15 15 21 22 20
19 21 21 22 21 20 19 15 9 10 9 9 8 3 2 2 8 2 5 6 7 7 6 4 2 3 1 2 1 5 7 6 11 11 7 8 12 10 20 4 8 15 19 18 20
21 21 23 22 22 20 16 10 9 9 6 7 5 3 2 2 4 3 7 5 6 9 5 6 6 7 2 3 3 4 5 7 7 10 5 8 5 12 12 9 14 18 18 18 21
22 22 23 22 22 19 13 8 9 6 4 4 2 3 2 9 4 2 6 4 5 7 3 6 4 2 2 4 3 4 6 8 3 4 4 8 4 7 7 17 17 19 14 13 18
22 22 23 23 20 17 11 8 7 3 2 3 5 2 5 2 6 9 10 8 6 8 12 13 7 4 2 2 8 5 5 5 6 4 4 5 7 5 13 21 17 15 13 12 11
23 24 24 24 19 15 11 9 3 2 2 4 3 3 8 7 4 7 14 6 4 10 11 13 0 2 6 4 5 7 2 3 11 3 4 3 9 6 8 12 15 14 10 12 7
23 24 24 22 17 14 10 2 3 3 3 2 1 3 5 4 3 6 8 12 6 3 4 5 5 3 4 4 3 2 4 5 6 7 4 4 7 7 12 14 14 8 11 14 12
24 25 24 21 16 11 6 2 4 3 2 5 3 3 6 6 2 4 10 4 2 8 2 3 5 5 7 7 4 1 4 5 6 8 3 6 7 3 7 7 9 11 12 16 17
26 27 24 19 14 9 4 2 3 3 6 9 7 6 13 6 4 3 4 2 4 1 2 6 4 10 6 5 6 4 3 9 5 4 3 17 20 9 8 10 7 9 13 21 14
27 26 23 19 10 3 6 9 13 3 2 7 5 4 5 9 6 6 7 3 2 2 4 4 11 5 6 5 2 4 5 4 4 3 4 9 11 14 8 5 12 9 12 14 13
27 26 23 17 2 8 3 18 8 3 4 5 3 5 3 5 4 8 11 5 1 2 2 4 4 4 3 4 6 4 6 4 2 5 2 4 1 5 6 8 6 7 12 21 21
28 26 21 14 8 2 7 16 5 2 3 2 3 2 3 5 1 1 5 4 4 4 5 7 7 8 2 4 2 5 2 3 2 5 4 7 6 7 5 8 8 10 9 18 20
28 25 20 7 5 4 13 11 1 4 1 2 4 4 4 1 3 2 3 2 1 1 1 7 5 2 3 4 3 3 3 4 5 2 4 5 6 5 4 6 9 9 12 9 6
29 24 17 8 2 6 12 3 4 3 5 3 5 4 4 5 3 5 5 5 3 3 4 5 4 7 3 7 7 8 7 4 5 5 3 3 6 6 7 7 6 6 9 8 9
27 21 11 11 3 3 4 5 1 2 5 4 3 3 6 5 6 5 5 2 3 4 2 2 6 5 5 1 3 4 5 5 1 0 4 4 4 5 7 7 8 4 1 5 4
25 11 7 0 6 4 5 3 6 4 5 6 4 3 5 6 2 3 5 3 1 5 5 3 4 4 2 2 2 2 5 1 6 3 2 3 3 5 5 9 7 1 3 1 5
18 8 5 4 7 5 5 4 4 4 4 3 3 4 3 5 5 3 3 2 2 3 3 4 2 3 4 1 6 6 1 3 4 1 1 4 4 4 6 8 2 3 4 4 3
5 3 7 8 5 5 3 6 5 7 4 3 2 2 2 3 2 3 2 4 4 3 6 3 3 6 4 5 3 5 4 7 4 3 4 1 6 6 7 6 6 6 4 3 4
5 2 6 5 3 1 2 4 4 5 5 1 3 3 2 3 4 2 2 1 5 1 3 2 4 1 4 6 4 3 3 4 4 2 0 3 6 4 6 7 5 7 4 3 4
2 3 3 2 2 2 5 4 3 4 3 0 2 3 1 2 2 3 2 3 5 3 4 4 2 3 8 6 6 6 3 4 4 3 4 5 5 1 4 4 1 8 4 1 4
2 3 4 4 1 3 2 3 5 8 2 3 3 4 4 3 6 2 4 7 4 4 8 6 3 6 6 5 3 2 1 1 3 2 3 5 6 11 5 3 6 7 6 3 1
3 1 3 2 3 3 1 3 3 5 5 5 4 4 4 2 2 2 3 4 6 8 4 4 4 4 5 5 3 3 6 3 6 6 5 7 8 11 5 9 8 8 7 6 4
2 2 3 0 3 3 5 5 6 5 5 3 4 3 3 5 3 5 2 0 1 5 3 4 1 1 3 2 5 4 7 10 8 7 7 8 9 7 4 6 6 6 6 5 4
2 1 3 3 3 3 1 3 3 5 3 4 7 4 4 4 3 2 2 2 1 1 2 2 3 3 4 2 5 4 8 6 2 4 3 5 5 3 3 6 6 6 6 5 4
Wind_Direction
347 342 339 336 332 331 329 324 321 316 312 309 308 312 317 314 313 303 252 215 107 132 189 263 231 135 191 206 169 130 69 184 222 186 264 164 20 37 25 129 222 162 155 148 159
348 341 336 334 330 330 330 325 320 316 312 311 313 320 318 318 318 273 321 173 177 184 191 190 108 109 52 244 145 110 119 215 212 198 221 240 147 168 138 41 331 271 99 140 150
346 339 337 335 331 330 329 324 321 318 321 320 322 330 326 330 325 259 36 158 161 152 151 134 132 99 82 337 201 156 188 220 255 230 213 195 190 169 140 212 190 198 154 152 157
345 339 339 334 332 330 328 325 322 323 326 328 328 332 328 9 155 287 125 154 160 172 180 147 80 98 128 228 247 193 242 223 280 261 235 156 141 194 172 221 206 182 166 154 169
347 340 340 336 332 330 330 325 320 328 329 337 334 342 61 25 253 261 168 158 162 174 186 153 123 130 191 217 233 203 258 249 261 285 245 160 187 186 209 46 118 155 159 169 175
347 341 339 337 334 333 334 326 324 328 332 340 341 112 83 295 316 244 198 188 173 181 168 175 185 199 232 223 172 221 239 275 280 270 241 167 240 137 211 139 150 168 174 178 186
347 342 338 338 336 336 338 331 331 340 349 343 81 82 88 236 43 216 215 236 217 195 196 217 178 149 175 298 232 286 324 336 272 297 280 145 86 214 172 166 167 178 186 186 196
345 342 339 340 340 341 339 333 337 26 48 47 109 45 248 199 276 235 241 266 257 245 249 272 270 220 181 302 7 6 55 17 284 318 305 111 268 245 173 163 174 177 182 186 198
343 343 343 342 340 342 337 328 295 122 89 94 65 54 276 305 233 229 227 227 284 283 258 280 196 54 19 61 2 8 303 325 324 297 252 121 254 185 180 176 174 183 181 203 209
342 342 344 342 337 341 345 27 151 110 92 38 292 346 282 315 241 215 221 235 258 332 17 48 46 42 37 73 220 281 343 322 286 296 10 327 278 186 188 185 186 179 198 209 205
343 343 344 343 336 339 348 148 11 4 154 220 214 260 272 291 189 208 204 173 77 56 25 354 38 266 239 203 187 293 272 256 260 273 296 329 322 220 179 190 186 210 214 218 213
346 345 343 343 331 337 4 67 199 256 315 233 247 249 265 275 344 257 179 117 70 346 11 7 263 255 230 219 223 218 256 287 288 275 141 59 31 26 351 323 311 251 226 228 214
347 344 340 346 330 346 331 357 325 332 50 295 203 199 209 150 205 237 131 157 170 322 248 170 254 333 208 253 198 224 194 257 227 311 20 119 58 17 349 307 287 241 258 262 245
345 345 341 349 30 339 338 348 320 278 51 278 251 264 132 134 237 209 179 139 87 220 271 229 284 294 308 254 165 3 193 215 88 72 127 27 99 34 332 312 357 322 246 245 245
342 342 340 339 312 299 323 341 345 102 64 153 207 157 96 156 247 264 157 58 217 211 75 267 296 329 355 256 199 219 98 18 64 103 99 350 76 284 300 350 349 336 317 234 248
339 340 332 321 279 294 339 330 88 42 317 321 154 165 122 321 347 54 119 59 238 143 252 255 268 305 290 314 344 22 57 54 58 69 52 279 119 293 298 281 304 339 334 309 200
338 331 312 269 231 326 333 37 37 124 349 256 204 159 177 204 247 166 172 187 195 68 353 334 324 321 359 11 6 58 51 4 14 14 228 228 60 219 267 286 273 288 12 36 107
333 324 297 259 240 327 24 48 138 259 263 298 296 124 174 156 231 187 134 187 239 94 93 95 333 13 348 25 246 7 117 140 143 210 266 333 143 246 227 280 286 280 23 82 100
333 325 296 348 181 187 76 84 204 214 290 338 335 98 357 351 293 112 139 187 178 166 167 149 287 323 67 13 60 43 41 166 105 359 60 285 272 301 226 251 270 245 314 285 5
334 325 275 154 139 86 78 222 238 229 303 30 71 19 59 358 22 103 137 321 126 52 138 184 344 360 298 103 25 96 171 40 11 123 299 299 291 249 200 250 267 171 208 246 317
348 18 2 169 159 52 154 228 269 274 279 92 139 69 61 21 27 53 358 348 8 44 67 96 102 293 7 38 350 350 23 51 116 120 159 206 272 220 235 203 226 243 293 335 360
1 39 358 165 53 28 171 201 282 297 321 297 106 96 83 49 32 81 109 33 341 32 59 32 123 263 260 302 287 54 97 104 110 238 132 140 270 276 251 177 208 214 198 297 294
16 265 359 155 161 294 300 293 267 310 239 79 91 71 3 84 106 16 87 16 31 66 143 177 46 14 348 358 14 52 20 113 104 70 214 146 261 356 38 94 200 163 154 107 355
57 14 330 40 49 130 22 302 320 332 51 29 124 80 69 49 28 121 10 7 30 61 60 76 119 155 204 210 173 257 339 95 116 119 228 229 278 306 345 175 141 129 137 164 303
32 261 184 342 350 355 288 323 348 358 1 12 48 46 121 125 64 52 355 3 36 357 63 92 179 190 232 221 229 235 285 244 195 209 188 257 223 265 238 202 175 157 159 157 100
83 57 357 332 297 356 10 27 8 335 19 343 109 3 76 147 184 186 220 318 232 356 70 360 256 177 300 287 218 234 263 263 236 236 232 243 263 247 261 114 115 142 141 95 81
33 68 106 318 349 71 7 305 321 325 9 54 149 102 71 157 167 213 204 185 218 155 125 95 120 91 250 12 308 295 236 237 279 268 237 236 241 195 81 92 93 91 107 120 70